Location: Tel Aviv
(32.0670°N, 34.7670°E)
Time: 13:52:52
(UTC+03:00)

Vanguard 2 Rocket - Pass Details

Date: 25 January 2022
Orbit: 553 x 3323 km, 32.9° (Epoch: 23 May)

Event Time Altitude Azimuth Distance (km) Brightness Sun altitude
Exits shadow 01:14:22 37° 84° (E) 4,219 10.1 -67.6°
Drops below altitude 10° 01:24:37 10° 76° (ENE) 6,284 11.4 -65.7°
Sets 01:29:35 0° 75° (ENE) 7,291 11.9 -64.7°
